Home > Weather > Coesfeld > Past weeks

Flag for Germany Past Weather in Coesfeld, North Rhine-Westphalia, Germany — Yesterday and Last 2 Weeks

Now
61 °F

Cool.


Feels Like: 61 °F
Forecast: 61 / 71 °F
Wind: 3 mph from South

Location: Rheine-Bentlage

Current Time: Jul 27, 2016 at 5:59:01 AM

Latest Report: Jul 27, 2016 at 5:20 AM


Visibility: N/A

Pressure: 30.04 "Hg

Humidity: 94%

Dew Point: 59 °F

Location of CoesfeldLocation

Past Weather in Coesfeld — Graph

°F

Coesfeld Temperature Yesterday

Maximum temperature yesterday: 77 °F (at 4:20 PM)
Minimum temperature yesterday: 55 °F (at 5:20 AM)
Average temperature yesterday: 67 °F

High & Low Weather Summary for the Past Weeks

 TemperatureHumidityPressure
High91 °F (Jul 20, 4:20 PM)100% (Jul 13, 6:20 AM)30.24 "Hg (Jul 13, 6:20 AM)
Low48 °F (Jul 14, 4:20 AM)30% (Jul 20, 4:20 PM)29.83 "Hg (Jul 12, 4:20 AM)
Average67 °F76%30.07 "Hg
* Reported Jul 12 4:20 AM — Jul 27 4:20 AM, Coesfeld, Weather by CustomWeather, © 2016

Note: Actual official high and low records may vary slightly from our data, if they occured in-between our weather recording intervals... More about our weather records

Advertising

Coesfeld Weather History for the Previous 24 Hours

Scroll right to see more
 ConditionsComfort  
Time TempWeatherWind HumidityBarometerVisibility
4:20 AM
Wed, Jul 27
61 °FCool.1 mph94%30.07 "HgN/A
3:20 AM61 °FCool.1 mph94%30.07 "HgN/A
2:20 AM63 °FMild.No wind88%30.07 "HgN/A
1:20 AM64 °FMild.1 mph83%30.09 "HgN/A
12:20 AM64 °FMild.1 mph83%30.09 "HgN/A
11:20 PM
Tue, Jul 26
64 °FMild.1 mph83%30.09 "HgN/A
10:20 PM68 °FMild.2 mph73%30.09 "HgN/A
9:20 PM70 °FMild.5 mph64%30.09 "HgN/A
8:20 PM72 °FMild.6 mph57%30.09 "HgN/A
7:20 PM73 °FMild.6 mph53%30.09 "HgN/A
6:20 PM73 °FMild.6 mph53%30.09 "HgN/A
5:20 PM75 °FMild.6 mph47%30.09 "HgN/A
4:20 PM77 °FWarm.3 mph42%30.12 "HgN/A
3:20 PM75 °FPartly sunny.5 mph44%30.12 "HgN/A
2:20 PM73 °FScattered clouds.6 mph50%30.12 "HgN/A
1:20 PM73 °FPartly sunny.5 mph47%30.12 "HgN/A
12:20 PM73 °FPartly sunny.2 mph50%30.15 "HgN/A
11:20 AM70 °FScattered clouds.2 mph57%30.15 "HgN/A
10:20 AM68 °FScattered clouds.2 mph64%30.15 "HgN/A
9:20 AM66 °FPartly sunny.1 mph73%30.15 "HgN/A
8:20 AM63 °FScattered clouds.1 mph88%30.15 "HgN/A
7:20 AM59 °FScattered clouds.1 mph94%30.12 "Hg5 mi
6:20 AM55 °FFog.1 mph100%30.12 "Hg3 mi
5:20 AM55 °FCool.No wind100%30.12 "HgN/A
Weather by CustomWeather, © 2016

See weather overviewHow to use our weather pages